Weather History for KARV - December, 2011

Change the Weather History Date:

Friday, December 9, 2011

  Actual Average (KRHI) Record (KRHI)
Temperature  
Mean Temperature 8 °F 19 °F  
Max Temperature 14 °F 27 °F 54 °F (1946)
Min Temperature 2 °F 11 °F -26 °F (1927)
Degree Days  
Heating Degree Days 57 46  
Month to date heating degree days 401  
Since 1 July heating degree days 2535  
Cooling Degree Days 0 0  
Month to date cooling degree days 0  
Year to date cooling degree days 261  
Moisture  
Dew Point -1 °F    
Average Humidity 66    
Maximum Humidity 79    
Minimum Humidity 50    
Precipitation  
Precipitation 0.00 in 0.05 in 0.44 in (2009)
Month to date precipitation 0.47  
Year to date precipitation 30.43  
Snow  
Snow 0.00 in - 6.90 in (2009)
Month to date snowfall  
Since 1 July snowfall  
Snow Depth -    
Sea Level Pressure  
Sea Level Pressure 30.10 in    
Wind  
Wind Speed 6 mph (WSW)    
Max Wind Speed 14 mph    
Max Gust Speed 20 mph    
Visibility 10 miles    
Events      
T = Trace of Precipitation, MM = Missing Value Source: NWS Daily Summary

Daily Weather History Graph

Daily Weather History Graph

Search for Another Location

Airport or City:

Trip Planner

Search our weather history database for the weather conditions in past years. The results will help you decide how hot, cold, wet, or windy it might be!

Date:

Astronomy

Dec. 09, 2011 Rise Set
Actual Time 7:28 AM CST 4:13 PM CST
Civil Twilight 6:54 AM CST 4:48 PM CST
Nautical Twilight 6:16 AM CST 5:25 PM CST
Astronomical Twilight 5:40 AM CST 6:02 PM CST
Moon 3:36 PM CST (12/9) 6:36 AM CST (12/9)
Length of Visible Light 9h 54m
Length of Day
8h 45m
Waxing Gibbous, 99% of the Moon is Illuminated
Dec 9
Waxing Gibbous
Dec 10
Full
Dec 17
Last Quarter
Dec 24
New
Jan 1
First Quarter

Hourly Weather History & Observations

Time (CST) Temp. Windchill Dew Point Humidity Pressure Visibility Wind Dir Wind Speed Gust Speed Precip Events Conditions
12:15 AM 9.0 °F 2.4 °F 1.4 °F 71% 30.01 in 10.0 mi WSW 3.5 mph - N/A   Mostly Cloudy
12:35 AM 10.8 °F 4.5 °F 3.2 °F 72% 30.01 in 10.0 mi WSW 3.5 mph - N/A   Mostly Cloudy
12:55 AM 9.9 °F 0.2 °F 2.1 °F 71% 30.01 in 10.0 mi WSW 5.8 mph - N/A   Scattered Clouds
1:15 AM 9.0 °F -0.9 °F 1.0 °F 70% 30.01 in 10.0 mi WSW 5.8 mph - N/A   Clear
1:35 AM 9.0 °F -0.9 °F 1.0 °F 70% 30.01 in 10.0 mi WSW 5.8 mph - N/A   Mostly Cloudy
1:55 AM 9.0 °F -2.2 °F 0.9 °F 70% 30.01 in 10.0 mi WSW 6.9 mph - N/A   Scattered Clouds
2:15 AM 9.0 °F -0.9 °F 1.0 °F 70% 30.02 in 10.0 mi WSW 5.8 mph - N/A   Clear
2:35 AM 7.9 °F -0.7 °F 0.1 °F 71% 30.02 in 10.0 mi WSW 4.6 mph - N/A   Clear
2:55 AM 6.4 °F -3.9 °F -0.9 °F 72% 30.02 in 10.0 mi WSW 5.8 mph - N/A   Clear
3:15 AM 6.3 °F -0.7 °F -0.9 °F 72% 30.03 in 10.0 mi West 3.5 mph - N/A   Scattered Clouds
3:35 AM 5.4 °F -1.7 °F -1.5 °F 73% 30.03 in 10.0 mi West 3.5 mph - N/A   Clear
3:55 AM 5.0 °F - -1.3 °F 75% 30.03 in 10.0 mi Calm Calm - N/A   Clear
4:15 AM 4.8 °F -4.3 °F -1.3 °F 76% 30.03 in 10.0 mi WSW 4.6 mph - N/A   Clear
4:35 AM 4.8 °F -5.8 °F -1.5 °F 75% 30.03 in 10.0 mi West 5.8 mph - N/A   Clear
4:55 AM 5.0 °F -4.1 °F -1.3 °F 75% 30.04 in 10.0 mi West 4.6 mph - N/A   Clear
5:15 AM 5.0 °F -4.1 °F -1.5 °F 75% 30.04 in 10.0 mi West 4.6 mph - N/A   Clear
5:35 AM 4.8 °F -4.3 °F -1.5 °F 75% 30.05 in 10.0 mi West 4.6 mph - N/A   Clear
5:55 AM 4.5 °F -6.3 °F -1.5 °F 76% 30.05 in 10.0 mi WSW 5.8 mph - N/A   Clear
6:15 AM 4.1 °F -6.7 °F -1.8 °F 76% 30.06 in 10.0 mi WSW 5.8 mph - N/A   Clear
6:35 AM 3.9 °F -5.3 °F -2.0 °F 76% 30.07 in 10.0 mi West 4.6 mph - N/A   Clear
7:15 AM 3.4 °F -5.9 °F -2.0 °F 78% 30.07 in 10.0 mi WSW 4.6 mph - N/A   Clear
7:35 AM 2.8 °F -8.2 °F -2.4 °F 79% 30.07 in 10.0 mi West 5.8 mph - N/A   Clear
7:55 AM 3.4 °F -7.5 °F -2.0 °F 78% 30.08 in 10.0 mi WSW 5.8 mph - N/A   Clear
8:15 AM 3.9 °F -9.4 °F -1.8 °F 77% 30.09 in 10.0 mi West 8.1 mph - N/A   Clear
8:35 AM 4.3 °F -7.8 °F -1.8 °F 76% 30.09 in 10.0 mi West 6.9 mph - N/A   Clear
8:55 AM 5.0 °F -6.9 °F -1.5 °F 75% 30.10 in 10.0 mi West 6.9 mph - N/A   Clear
9:15 AM 5.5 °F -9.3 °F -1.3 °F 73% 30.10 in 10.0 mi West 10.4 mph - N/A   Clear
9:35 AM 6.4 °F -5.2 °F -1.1 °F 71% 30.11 in 10.0 mi West 6.9 mph - N/A   Clear
9:55 AM 8.4 °F -4.9 °F -0.0 °F 68% 30.12 in 10.0 mi West 9.2 mph - N/A   Clear
10:15 AM 9.0 °F -3.2 °F -0.0 °F 67% 30.13 in 10.0 mi West 8.1 mph - N/A   Scattered Clouds
10:35 AM 9.9 °F -1.1 °F 0.7 °F 66% 30.13 in 10.0 mi West 6.9 mph - N/A   Clear
10:55 AM 11.3 °F -1.3 °F 1.0 °F 63% 30.13 in 10.0 mi West 9.2 mph - N/A   Clear
11:15 AM 11.3 °F -2.2 °F 0.3 °F 61% 30.13 in 10.0 mi West 10.4 mph - N/A   Clear
11:35 AM 11.3 °F -2.2 °F -0.4 °F 59% 30.12 in 10.0 mi West 10.4 mph 16.1 mph N/A   Clear
12:15 PM 11.3 °F 1.9 °F -1.7 °F 56% 30.12 in 10.0 mi West 5.8 mph - N/A   Clear
12:35 PM 11.3 °F -0.4 °F -2.0 °F 55% 30.12 in 10.0 mi West 8.1 mph - N/A   Clear
1:15 PM 12.6 °F 1.1 °F -1.7 °F 53% 30.12 in 10.0 mi West 8.1 mph - N/A   Clear
1:35 PM 12.9 °F -1.6 °F -1.5 °F 53% 30.12 in 10.0 mi West 12.7 mph 18.4 mph N/A   Clear
1:55 PM 13.6 °F -1.3 °F -0.4 °F 54% 30.12 in 10.0 mi WSW 13.8 mph 19.6 mph N/A   Clear
2:15 PM 14.0 °F 2.9 °F -0.4 °F 53% 30.13 in 10.0 mi West 8.1 mph - N/A   Clear
2:35 PM 14.0 °F 2.9 °F -1.1 °F 51% 30.13 in 10.0 mi West 8.1 mph - N/A   Clear
2:55 PM 14.0 °F 3.9 °F -1.7 °F 50% 30.13 in 10.0 mi WSW 6.9 mph - N/A   Clear
3:15 PM 14.0 °F 3.9 °F -1.5 °F 50% 30.13 in 10.0 mi West 6.9 mph - N/A   Clear
3:35 PM 14.0 °F 2.0 °F -1.7 °F 50% 30.14 in 10.0 mi WSW 9.2 mph - N/A   Clear
3:55 PM 13.3 °F 1.1 °F -1.8 °F 51% 30.14 in 10.0 mi WSW 9.2 mph - N/A   Clear
4:15 PM 11.8 °F 2.5 °F -2.2 °F 53% 30.15 in 10.0 mi WSW 5.8 mph - N/A   Clear
4:35 PM 11.3 °F 3.3 °F -2.2 °F 55% 30.16 in 10.0 mi WSW 4.6 mph - N/A   Clear
4:55 PM 11.3 °F 1.9 °F -1.5 °F 57% 30.16 in 10.0 mi WSW 5.8 mph - N/A   Clear
5:15 PM 11.3 °F 3.3 °F -0.9 °F 58% 30.17 in 10.0 mi WSW 4.6 mph - N/A   Clear
5:35 PM 11.3 °F 3.3 °F -0.6 °F 59% 30.17 in 10.0 mi West 4.6 mph - N/A   Clear
5:55 PM 11.3 °F 1.9 °F -0.4 °F 59% 30.18 in 10.0 mi WSW 5.8 mph - N/A   Clear
6:15 PM 9.5 °F 1.2 °F -1.7 °F 61% 30.19 in 10.0 mi WSW 4.6 mph - N/A   Clear
6:35 PM 9.5 °F -0.3 °F -1.7 °F 61% 30.20 in 10.0 mi West 5.8 mph - N/A   Clear
6:55 PM 9.0 °F -0.9 °F -1.8 °F 62% 30.20 in 10.0 mi West 5.8 mph - N/A   Clear
7:15 PM 9.0 °F 0.6 °F -1.5 °F 63% 30.20 in 10.0 mi WSW 4.6 mph - N/A   Clear
7:35 PM 8.1 °F -0.5 °F -2.0 °F 64% 30.20 in 10.0 mi WSW 4.6 mph - N/A   Clear
7:55 PM 6.4 °F -2.4 °F -2.7 °F 66% 30.20 in 10.0 mi West 4.6 mph - N/A   Clear
8:15 PM 5.9 °F -3.0 °F -2.7 °F 68% 30.20 in 10.0 mi West 4.6 mph - N/A   Clear
8:35 PM 5.2 °F -3.8 °F -2.6 °F 70% 30.21 in 10.0 mi West 4.6 mph - N/A   Clear
8:55 PM 4.6 °F -2.5 °F -2.7 °F 72% 30.21 in 10.0 mi West 3.5 mph - N/A   Clear
9:15 PM 4.6 °F - -2.6 °F 72% 30.21 in 10.0 mi Calm Calm - N/A   Clear
9:35 PM 4.6 °F - -2.2 °F 73% 30.22 in 10.0 mi Calm Calm - N/A   Clear
9:55 PM 5.0 °F -2.1 °F -2.0 °F 73% 30.22 in 10.0 mi West 3.5 mph - N/A   Clear
10:15 PM 4.3 °F -4.9 °F -2.6 °F 73% 30.22 in 10.0 mi WSW 4.6 mph - N/A   Clear
10:35 PM 4.5 °F -6.3 °F -2.7 °F 72% 30.22 in 10.0 mi West 5.8 mph - N/A   Clear
11:15 PM 4.5 °F -2.7 °F -2.6 °F 73% 30.22 in 10.0 mi West 3.5 mph - N/A   Clear
11:35 PM 4.3 °F -4.9 °F -2.6 °F 73% 30.22 in 10.0 mi West 4.6 mph - N/A   Clear
11:55 PM 4.1 °F -6.7 °F -2.9 °F 73% 30.23 in 10.0 mi West 5.8 mph - N/A   Clear